Hourly Data Report for October 09, 2014

All times are specified in Local Standard Time (LST). Add 1 hour to adjust for Daylight Saving Time where and when it is observed.

CLYDE RIVER A
NUNAVUT

70°29'09.000" N
68°31'01.000" W
26.50 m
2400804
71090
YCY

Download Data

Hourly Data (October 2014)
Hourly Data Report for October 9, 2014
Temp Definition
°C
Dew Point Temp Definition
°C
Rel Hum Definition
%
Wind Dir Definition
10's deg

Wind Spd Definition
km/h
Visibility Definition
km
Stn Press Definition
kPa
Hmdx Definition


Wind Chill Definition


Weather Definition


TIME
00:00 Legend Double Dagger -3.4 -6.6 79 32 41 16.1 101.50   -12 LegendNANA
01:00 Legend Double Dagger -3.5 -6.8 78 31 43 16.1 101.47   -12 LegendNANA
02:00 Legend Double Dagger -4.0 -5.9 87 32 46 6.4 101.42   -13 Snow
03:00 Legend Double Dagger -5.0 -6.4 90 30 35 8.1 101.40   -14 Snow
04:00 Legend Double Dagger -4.5 -5.5 93 30 37 3.2 101.37   -13 Snow
05:00 Legend Double Dagger -4.6 -5.9 91 29 22 14.5 101.33   -11 Snow
06:00 Legend Double Dagger -3.8 -5.5 88 30 26 11.3 101.29   -11 Snow
07:00 Legend Double Dagger -3.3 -4.4 92 31 32 3.2 101.25   -11 Snow
08:00 Legend Double Dagger -3.0 -4.0 93 31 28 2.4 101.20   -10 Snow
09:00 Legend Double Dagger -3.8 -5.2 90 28 35 8.1 101.11   -12 Snow
10:00 Legend Double Dagger -3.7 -4.8 92 28 43 1.6 101.04   -13 Snow
11:00 Legend Double Dagger -2.5 -3.9 90 4 26 8.1 101.11   -9 Snow
12:00 Legend Double Dagger -4.3 -5.9 89 36 17 16.1 101.20   -10 LegendNANA
13:00 Legend Double Dagger -5.1 -7.1 86 3 17 16.1 101.23   -11 LegendNANA
14:00 Legend Double Dagger -5.7 -8.1 83 5 13 16.1 101.27   -11 LegendNANA
15:00 Legend Double Dagger -4.8 -7.4 82 35 15 16.1 101.31   -10 LegendNANA
16:00 Legend Double Dagger -3.7 -5.6 87 34 13 16.1 101.34   -9 LegendNANA
17:00 Legend Double Dagger -3.3 -5.0 88 36 17 16.1 101.34   -9 LegendNANA
18:00 Legend Double Dagger -3.3 -5.8 83 4 13 16.1 101.37   -8 LegendNANA
19:00 Legend Double Dagger -3.9 -5.4 89 36 11 16.1 101.40   -8 LegendNANA
20:00 Legend Double Dagger -2.9 -4.3 90 35 17 16.1 101.40   -8 Snow
21:00 Legend Double Dagger -3.0 -4.7 88 35 13 16.1 101.40   -8 Snow
22:00 Legend Double Dagger -2.7 -4.4 88 36 15 16.1 101.37   -8 Snow
23:00 Legend Double Dagger -2.6 -4.0 90 35 13 16.1 101.33   -7 Snow

Notes on Data Quality.

Legend

  • E = Estimated
  • M = Missing
  • NA = Not Available
  • ‡ = Partner data that is not subject to review by the National Climate Archives
Date modified: